Flag for Canada Weather past 2 weeks in Chibougamau, Quebec, Canada

Now
55 °F

Sprinkles. Mostly cloudy.


Feels Like: 55 °F
Forecast: 53 / 64 °F
Wind: 2 mph from North

Location: Chibougamau-Chapais

Current Time: Jul 31, 2014 at 10:19:05 PM

Latest Report: Jul 31, 2014 at 9:00 PM


Visibility: 14 mi

Pressure: 29.93 "Hg

Humidity: 88%

Dew point: 52 °F

Location of ChibougamauLocation

Historic Weather in Chibougamau — Graph

°F

Chibougamau temperature yesterday

Maximum temperature yesterday: 66 °F (at 3:00 PM)
Minimum temperature yesterday: 45 °F (at 6:00 AM)
Average temperature yesterday: 58 °F

Past Weeks' High & Low Weather Summary

 TemperatureHumidityPressure
High81 °F (Jul 22, 7:00 PM)100% (Jul 17, 6:00 AM)30.17 "Hg (Jul 17, 6:00 AM)
Low45 °F (Jul 24, 6:00 AM)36% (Jul 18, 4:00 PM)29.68 "Hg (Jul 25, 6:00 PM)
Average62 °F70%29.90 "Hg
* Reported Jul 16 9:00 PM — Jul 31 9:00 PM, Chibougamau, Weather by CustomWeather, © 2014

Note: Actual official high and low records may vary slightly from our data, if they occured in-between our weather recording intervals... More about our weather records

Advertising

Chibougamau weather history for previous 24 hours

 ConditionsComfort  
Time TempWeatherWind HumidityBarometerVisibility
9:00 PM
Jul 31
55 °FSprinkles. Mostly cloudy.2 mph88%29.93 "Hg14 mi
8:00 PM63 °FBroken clouds.10 mph59%29.90 "Hg15 mi
7:00 PM63 °FScattered clouds.10 mph59%29.90 "Hg15 mi
6:00 PM66 °FPartly sunny.10 mph56%29.90 "Hg15 mi
5:00 PM66 °FPartly sunny.9 mph52%29.91 "Hg15 mi
4:00 PM66 °FBroken clouds.7 mph56%29.92 "Hg15 mi
3:00 PM66 °FBroken clouds.12 mph56%29.93 "Hg15 mi
2:00 PM63 °FBroken clouds.2 mph73%29.93 "Hg15 mi
1:00 PM64 °FPartly sunny.6 mph68%29.94 "Hg15 mi
12:00 PM64 °FBroken clouds.10 mph64%29.96 "Hg15 mi
11:00 AM63 °FPartly sunny.9 mph73%29.97 "Hg15 mi
10:00 AM59 °FPartly sunny.8 mph82%29.98 "Hg15 mi
9:00 AM57 °FPartly sunny.8 mph82%29.97 "Hg15 mi
8:00 AM55 °FPartly sunny.8 mph94%29.98 "Hg15 mi
7:00 AM54 °FBroken clouds.7 mph94%29.96 "Hg15 mi
6:00 AM52 °FPassing clouds.6 mph100%29.96 "Hg15 mi
Weather by CustomWeather, © 2014

See weather overviewHow to use our weather pages